Location: ?????????
(38.4921°N, 22.9787°E)
Time: 03:54:58
(UTC+00:00)

COSMOS 2406 - Pass Details

Date: 08 December 2025
Orbit: 844 x 860 km, 71.0° (Epoch: 21 January)

Event Time Altitude Azimuth Distance (km) Brightness Sun altitude
Rises 03:30:12 0° 201° (SSW) 3,389 6.2 -23.3°
Reaches altitude 10° 03:32:38 10° 201° (SSW) 2,456 5.5 -22.9°
Maximum altitude 03:38:16 89° 284° (WNW) 849 3.1 -21.8°
Drops below altitude 10° 03:43:58 10° 22° (NNE) 2,470 5.7 -20.7°
Sets 03:46:25 0° 23° (NNE) 3,409 6.5 -20.2°
